Orbital Elements at Epoch 2459200.5 (2020-Dec-17.0) TDB
Reference: JPL 23 (heliocentric ecliptic J2000)
Element | Value | Uncertainty (1-sigma) | Units |
e | .09529697685186433 | 3.9462e-08 | |
a | 2.394113601700002 | 1.1502e-08 | au |
q | 2.165961813218063 | 9.6009e-08 | au |
i | 6.465633091950511 | 3.654e-06 | deg |
node | 115.9109087519033 | 4.0476e-05 | deg |
peri | 77.58094294995705 | 4.5779e-05 | deg |
M | 320.7874140243433 | 2.2249e-05 | deg |
tp | 2459347.879996219458 (2021-May-13.37999622) | 8.4051e-05 | TDB |
period | 1353.055334630128 3.70 | 9.7505e-06 2.67e-08 | d yr |
n | .2660645065919716 | 1.9173e-09 | deg/d |
Q | 2.622265390181941 | 1.2598e-08 | au |
|
| | Orbit Determination Parameters
Additional Information
|